Regional Weather Roundup
Issued by NWS Bismarck, ND

Current Version | Previous Version | Text Only | Print | Product List | Glossary On
Versions: 1 2 3 4 5 6 7 8 9 10 11 12 13 14 15 16 17 18 19 20 21 22 23 24 25 26 27 28 29 30 31 32 33 34 35 36 37 38 39 40 41 42 43 44 45 46 47 48 49 50
960 ASUS43 KBIS 210302 RWRBIS NWR BROADCAST TEXT NATIONAL WEATHER SERVICE BISMARCK ND 1000 PM CDT TUE APR 20 2021 NOTE: "FAIR" INDICATES FEW OR NO CLOUDS BELOW 12,000 FEET WITH NO SIGNIFICANT WEATHER AND/OR OBSTRUCTIONS TO VISIBILITY. CITY SKY/WX TMP DP RH WIND PRES REMARKS WILLISTON CLEAR 30 13 49 N6 30.25R MINOT PTCLDY 31 15 52 W8 30.23R MINOT AFB CLEAR 23 14 67 NW6 30.22R WCI 16 BISMARCK CLOUDY 33 20 58 NW7 30.27R DICKINSON MOCLDY 28 16 60 N3 30.23R GARRISON N/A 26 22 84 W7 30.24R WCI 18 HETTINGER ARPT CLOUDY 28 12 51 NW6 30.25R JAMESTOWN MOCLDY 28 19 69 W6 30.22R CARRINGTON FAIR 25 21 86 W7 30.24S WCI 17 HAZEN CLOUDY 25 25 100 W5 30.28R WCI 19 MANDAN CLOUDY 25 23 93 W7 30.26R WCI 17 OAKES CLOUDY 25 14 63 N7 30.24R WCI 17 RUGBY CLOUDY 27 16 63 W8 30.21S WCI 18 STANLEY FAIR 21 18 86 NW3 30.23S TIOGA FAIR 25 12 58 W5 30.25R WCI 19 WATFORD CITY N/A N/A N/A N/A MISG N/A $$ CITY SKY/WX TMP DP RH WIND PRES REMARKS GRAND FORKS PTCLDY 25 18 74 W7 30.22R WCI 17 GRAND FORKS AF PTCLDY 24 20 82 N3 30.22R DEVILS LAKE CLOUDY 30 18 60 NW8 30.22R FARGO CLEAR 25 14 63 NW5 30.22R WCI 19 CANDO CLOUDY 21 16 79 W5 30.22S WCI 15 CAVALIER CLOUDY 28 21 74 NW7 30.21R GWINNER MOCLDY 25 14 63 N5 30.23R WCI 19 LANGDON FAIR 21 21 100 CALM 30.19S ROLLA MIX PCPN 30 16 55 VRB5G12 30.19S WALHALLA CLOUDY 28 21 74 W6 30.21S $$ CITY SKY/WX TMP DP RH WIND PRES REMARKS ABERDEEN PTCLDY 29 19 66 N9 30.24R MOBRIDGE PTCLDY 21 14 74 N5 30.24R WCI 15 BUFFALO N/A 27 15 61 NW13 30.23R WCI 16 RAPID CITY CLOUDY 28 15 58 NW12 30.27R WCI 18 GLASGOW CLEAR 39 16 39 N3 30.26R SIDNEY CLEAR 26 13 57 NW10 30.27R WCI 16 WOLF POINT CLEAR 30 11 45 CALM 30.28R GLENDIVE CLEAR 25 12 58 NW6 30.28R WCI 18 MILES CITY PTCLDY 30 16 56 NW6 30.29R BAKER CLOUDY 30 17 58 W8 30.27R $$ CITY SKY/WX TMP DP RH WIND PRES REMARKS BILLINGS PTCLDY 36 18 48 CALM 30.26S GREAT FALLS CLEAR 31 21 66 S7 30.24S $$

USA.gov is the U.S. government's official web portal to all federal, state and local government web resources and services.